Radiation Dose at Monitoring Post of Fukushima Daini Nuclear Power Station
Date,Time,MP-1(microSv/h),MP-2(microSv/h),MP-3(microSv/h),MP-4(microSv/h),MP-5(microSv/h),MP-6(microSv/h),MP-7(microSv/h),Wind Direction,Wind Velocity(m/s),Rain
2015/05/14,00:00,0.550,0.330,0.586,0.546,0.477,0.253,0.226,west-southwest,6.6,No
2015/05/14,00:10,0.545,0.332,0.585,0.543,0.479,0.254,0.226,west-southwest,6.3,No
2015/05/14,00:20,0.551,0.329,0.584,0.546,0.476,0.253,0.227,west-southwest,6.7,No
2015/05/14,00:30,0.548,0.332,0.587,0.543,0.479,0.252,0.227,west-southwest,7.7,No
2015/05/14,00:40,0.552,0.331,0.586,0.545,0.475,0.253,0.225,west-southwest,7.5,No
2015/05/14,00:50,0.547,0.332,0.587,0.542,0.479,0.254,0.226,west-southwest,8.2,No
2015/05/14,01:00,0.551,0.329,0.582,0.546,0.474,0.252,0.226,west-southwest,7.1,No
2015/05/14,01:10,0.545,0.332,0.587,0.541,0.479,0.253,0.226,west-southwest,6.2,No
2015/05/14,01:20,0.550,0.332,0.582,0.547,0.476,0.253,0.226,west,6.1,No
2015/05/14,01:30,0.546,0.333,0.588,0.542,0.479,0.252,0.226,west-southwest,6.9,No
2015/05/14,01:40,0.552,0.330,0.583,0.546,0.475,0.253,0.227,west-southwest,6.4,No
2015/05/14,01:50,0.546,0.331,0.585,0.543,0.480,0.252,0.227,west-southwest,6.7,No
2015/05/14,02:00,0.550,0.331,0.584,0.546,0.476,0.253,0.226,west-southwest,6.4,No
2015/05/14,02:10,0.546,0.333,0.583,0.545,0.480,0.253,0.226,west,6.0,No
2015/05/14,02:20,0.550,0.330,0.588,0.544,0.475,0.253,0.226,west,5.9,No
2015/05/14,02:30,0.548,0.332,0.583,0.543,0.479,0.252,0.227,west-southwest,7.3,No
2015/05/14,02:40,0.550,0.331,0.588,0.543,0.475,0.253,0.227,west,7.9,No
2015/05/14,02:50,0.550,0.331,0.582,0.543,0.479,0.253,0.224,west-southwest,8.1,No
2015/05/14,03:00,0.548,0.331,0.588,0.544,0.475,0.253,0.226,west-southwest,7.9,No
2015/05/14,03:10,0.550,0.332,0.583,0.541,0.479,0.254,0.226,west,6.4,No
2015/05/14,03:20,0.548,0.332,0.586,0.542,0.475,0.251,0.225,west,4.5,No
2015/05/14,03:30,0.552,0.330,0.587,0.543,0.479,0.254,0.226,west,2.5,No
2015/05/14,03:40,0.548,0.331,0.585,0.544,0.475,0.252,0.226,west,2.1,No
2015/05/14,03:50,0.551,0.329,0.587,0.544,0.478,0.252,0.225,west,1.1,No
2015/05/14,04:00,0.549,0.333,0.582,0.543,0.475,0.253,0.227,west-northwest,1.7,No
2015/05/14,04:10,0.551,0.330,0.588,0.543,0.480,0.251,0.227,west-northwest,2.2,No
2015/05/14,04:20,0.548,0.332,0.582,0.546,0.477,0.253,0.227,west,3.1,No
2015/05/14,04:30,0.551,0.330,0.586,0.540,0.481,0.253,0.226,west,3.5,No
2015/05/14,04:40,0.549,0.333,0.583,0.545,0.476,0.253,0.225,west,3.6,No
2015/05/14,04:50,0.549,0.330,0.585,0.544,0.481,0.252,0.226,west,4.2,No
2015/05/14,05:00,0.549,0.332,0.584,0.546,0.477,0.252,0.226,west,4.5,No
2015/05/14,05:10,0.550,0.332,0.586,0.542,0.480,0.253,0.226,west,3.9,No
2015/05/14,05:20,0.550,0.330,0.586,0.546,0.476,0.251,0.227,west-northwest,4.1,No
2015/05/14,05:30,0.549,0.330,0.587,0.542,0.477,0.253,0.226,west-northwest,4.8,No
2015/05/14,05:40,0.551,0.331,0.588,0.548,0.475,0.252,0.226,west-northwest,3.7,No
2015/05/14,05:50,0.548,0.331,0.584,0.541,0.480,0.253,0.226,west-northwest,1.9,No
2015/05/14,06:00,0.550,0.330,0.587,0.548,0.472,0.255,0.227,southwest,2.4,No
2015/05/14,06:10,0.550,0.331,0.586,0.542,0.479,0.252,0.225,south-southwest,1.4,No
2015/05/14,06:20,0.548,0.330,0.582,0.546,0.476,0.253,0.226,south,3.0,No
2015/05/14,06:30,0.548,0.329,0.587,0.541,0.474,0.252,0.227,south-southwest,3.5,No
2015/05/14,06:40,0.545,0.331,0.580,0.543,0.479,0.253,0.224,southwest,3.1,No
2015/05/14,06:50,0.552,0.328,0.588,0.542,0.473,0.252,0.224,south,2.0,No
2015/05/14,07:00,0.546,0.326,0.583,0.540,0.479,0.253,0.226,southeast,2.2,No
2015/05/14,07:10,0.547,0.331,0.578,0.544,0.478,0.253,0.226,south-southeast,2.5,No
2015/05/14,07:20,0.550,0.332,0.576,0.543,0.473,0.254,0.225,south-southeast,2.5,No
2015/05/14,07:30,0.545,0.331,0.585,0.537,0.481,0.253,0.223,south,2.8,No
2015/05/14,07:40,0.550,0.329,0.586,0.537,0.478,0.254,0.224,south-southwest,3.7,No
2015/05/14,07:50,0.551,0.328,0.583,0.539,0.473,0.252,0.223,south-southwest,3.9,No
2015/05/14,08:00,0.546,0.329,0.578,0.546,0.474,0.253,0.225,southwest,4.4,No
2015/05/14,08:10,0.542,0.328,0.579,0.544,0.480,0.253,0.223,southwest,5.0,No
2015/05/14,08:20,0.541,0.328,0.588,0.543,0.478,0.254,0.225,southwest,3.1,No
2015/05/14,08:30,0.543,0.328,0.588,0.539,0.474,0.253,0.225,southwest,3.5,No
2015/05/14,08:40,0.542,0.328,0.582,0.540,0.473,0.252,0.225,west-southwest,4.7,No
2015/05/14,08:50,0.543,0.328,0.581,0.541,0.473,0.253,0.225,west-southwest,5.3,No
2015/05/14,09:00,0.545,0.331,0.589,0.540,0.472,0.253,0.226,west-southwest,5.3,No
2015/05/14,09:10,0.546,0.330,0.589,0.541,0.475,0.252,0.226,west,3.6,No
2015/05/14,09:20,0.545,0.331,0.584,0.543,0.473,0.252,0.226,west-southwest,3.9,No
2015/05/14,09:30,0.547,0.331,0.581,0.542,0.474,0.252,0.227,west,6.1,No
2015/05/14,09:40,0.548,0.331,0.583,0.544,0.476,0.253,0.226,west-southwest,10.1,No
2015/05/14,09:50,0.548,0.330,0.588,0.546,0.474,0.254,0.227,west,6.7,No
2015/05/14,10:00,0.547,0.331,0.589,0.546,0.476,0.253,0.227,west,6.5,No
2015/05/14,10:10,0.547,0.330,0.587,0.544,0.477,0.254,0.228,west-southwest,4.4,No
2015/05/14,10:20,0.548,0.333,0.585,0.543,0.477,0.254,0.228,southwest,5.0,No
2015/05/14,10:30,0.549,0.332,0.584,0.546,0.476,0.255,0.228,southwest,6.1,No
2015/05/14,10:40,0.548,0.331,0.583,0.546,0.478,0.254,0.228,west-southwest,1.4,No
2015/05/14,10:50,0.551,0.332,0.585,0.546,0.478,0.254,0.228,west,3.1,No
2015/05/14,11:00,0.551,0.330,0.585,0.547,0.478,0.255,0.227,west,2.7,No
2015/05/14,11:10,0.550,0.331,0.588,0.548,0.479,0.256,0.229,west-northwest,4.2,No
2015/05/14,11:20,0.550,0.332,0.586,0.548,0.475,0.254,0.228,west,5.6,No
2015/05/14,11:30,0.551,0.333,0.587,0.544,0.479,0.253,0.227,west-southwest,6.4,No
2015/05/14,11:40,0.552,0.332,0.586,0.547,0.476,0.255,0.227,west-southwest,4.9,No
2015/05/14,11:50,0.551,0.332,0.588,0.550,0.477,0.254,0.229,west,3.6,No
2015/05/14,12:00,0.552,0.333,0.589,0.552,0.480,0.253,0.227,west-southwest,4.5,No
2015/05/14,12:10,0.552,0.332,0.588,0.549,0.479,0.254,0.228,southwest,3.4,No
2015/05/14,12:20,0.549,0.331,0.591,0.549,0.480,0.252,0.226,southwest,2.3,No
2015/05/14,12:30,0.549,0.332,0.589,0.548,0.479,0.252,0.225,south,4.2,No
2015/05/14,12:40,0.551,0.330,0.589,0.546,0.475,0.253,0.226,south,5.8,No
2015/05/14,12:50,0.557,0.334,0.589,0.544,0.476,0.253,0.229,south,9.2,No
2015/05/14,13:00,0.555,0.335,0.587,0.542,0.475,0.255,0.229,south,8.6,No
2015/05/14,13:10,0.552,0.334,0.586,0.542,0.477,0.255,0.228,south,8.2,No
2015/05/14,13:20,0.548,0.332,0.586,0.543,0.475,0.253,0.227,south,8.8,No
2015/05/14,13:30,0.556,0.333,0.588,0.544,0.474,0.255,0.226,south,9.8,No
2015/05/14,13:40,0.557,0.332,0.590,0.544,0.476,0.253,0.228,south,8.9,No
2015/05/14,13:50,0.553,0.330,0.590,0.544,0.477,0.254,0.229,south,9.5,No
2015/05/14,14:00,0.549,0.330,0.589,0.545,0.478,0.254,0.227,south,9.8,No
2015/05/14,14:10,0.555,0.331,0.589,0.543,0.478,0.254,0.227,south,8.9,No
2015/05/14,14:20,0.555,0.332,0.588,0.545,0.477,0.254,0.228,south,9.9,No
2015/05/14,14:30,0.552,0.334,0.587,0.543,0.476,0.254,0.229,south,9.8,No
2015/05/14,14:40,0.549,0.333,0.586,0.542,0.476,0.255,0.228,south,9.0,No
2015/05/14,14:50,0.556,0.331,0.585,0.545,0.477,0.256,0.227,south,8.5,No
2015/05/14,15:00,0.554,0.332,0.584,0.555,0.479,0.254,0.230,south,9.0,No
2015/05/14,15:10,0.551,0.336,0.584,0.550,0.476,0.254,0.229,south,9.2,No
2015/05/14,15:20,0.556,0.335,0.584,0.545,0.477,0.255,0.227,south,6.9,No
2015/05/14,15:30,0.555,0.333,0.584,0.555,0.475,0.254,0.228,south,6.9,No
2015/05/14,15:40,0.548,0.331,0.583,0.551,0.478,0.254,0.229,south,7.1,No
2015/05/14,15:50,0.554,0.334,0.585,0.548,0.478,0.256,0.228,south,4.4,No
2015/05/14,16:00,0.554,0.335,0.590,0.545,0.478,0.253,0.229,south,3.9,No
2015/05/14,16:10,0.550,0.332,0.594,0.552,0.478,0.253,0.228,south-southeast,5.6,No
2015/05/14,16:20,0.554,0.335,0.588,0.547,0.478,0.257,0.229,south-southeast,6.4,No
2015/05/14,16:30,0.556,0.334,0.587,0.549,0.476,0.255,0.229,south-southeast,5.9,No
2015/05/14,16:40,0.550,0.332,0.594,0.553,0.487,0.254,0.230,south-southeast,4.2,No
2015/05/14,16:50,0.553,0.335,0.591,0.548,0.485,0.256,0.229,south-southeast,4.4,No
2015/05/14,17:00,0.555,0.334,0.593,0.553,0.480,0.255,0.229,south,4.4,No
2015/05/14,17:10,0.550,0.334,0.598,0.549,0.479,0.253,0.229,south,4.6,No
2015/05/14,17:20,0.556,0.334,0.587,0.553,0.486,0.255,0.229,south,4.6,No
2015/05/14,17:30,0.556,0.333,0.595,0.551,0.481,0.255,0.229,south,4.8,No
2015/05/14,17:40,0.550,0.334,0.591,0.549,0.479,0.255,0.229,south,4.9,No
2015/05/14,17:50,0.556,0.332,0.589,0.552,0.485,0.254,0.229,south-southwest,4.2,No
2015/05/14,18:00,0.553,0.335,0.597,0.547,0.481,0.253,0.229,south-southwest,4.5,No
2015/05/14,18:10,0.553,0.333,0.589,0.552,0.483,0.256,0.229,south-southwest,3.1,No
2015/05/14,18:20,0.554,0.335,0.593,0.548,0.483,0.254,0.228,south,3.1,No
2015/05/14,18:30,0.551,0.335,0.590,0.552,0.479,0.256,0.229,south-southwest,3.5,No
2015/05/14,18:40,0.558,0.333,0.588,0.550,0.484,0.255,0.228,south-southwest,3.7,No
2015/05/14,18:50,0.550,0.334,0.594,0.551,0.479,0.255,0.228,south-southwest,2.5,No
2015/05/14,19:00,0.554,0.334,0.589,0.549,0.483,0.253,0.229,southwest,2.0,No
2015/05/14,19:10,0.554,0.335,0.595,0.548,0.477,0.255,0.229,west-southwest,1.0,No
2015/05/14,19:20,0.554,0.333,0.590,0.551,0.483,0.254,0.229,west-northwest,1.9,No
2015/05/14,19:30,0.554,0.335,0.592,0.547,0.479,0.255,0.229,northwest,3.2,No
2015/05/14,19:40,0.550,0.332,0.592,0.552,0.480,0.255,0.230,north,4.9,No
2015/05/14,19:50,0.555,0.335,0.590,0.549,0.482,0.255,0.229,north-northwest,4.3,No
2015/05/14,20:00,0.551,0.332,0.594,0.553,0.479,0.255,0.229,north-northwest,5.0,No
2015/05/14,20:10,0.556,0.334,0.587,0.550,0.483,0.256,0.230,north,3.9,No
2015/05/14,20:20,0.553,0.333,0.595,0.548,0.478,0.256,0.228,north,5.3,No
2015/05/14,20:30,0.554,0.335,0.589,0.551,0.482,0.255,0.229,north,6.1,No
2015/05/14,20:40,0.554,0.333,0.592,0.549,0.477,0.255,0.229,north-northeast,8.0,No
2015/05/14,20:50,0.551,0.334,0.592,0.552,0.482,0.255,0.229,north-northeast,9.4,No
2015/05/14,21:00,0.555,0.334,0.592,0.546,0.479,0.255,0.229,north,10.1,No
2015/05/14,21:10,0.552,0.334,0.593,0.552,0.483,0.255,0.229,north,8.7,No
2015/05/14,21:20,0.558,0.333,0.589,0.548,0.480,0.255,0.229,north,7.7,No
2015/05/14,21:30,0.552,0.335,0.595,0.553,0.480,0.254,0.230,north,8.1,No
2015/05/14,21:40,0.557,0.334,0.588,0.547,0.481,0.255,0.229,north,8.9,No
2015/05/14,21:50,0.551,0.334,0.595,0.549,0.477,0.254,0.229,north,8.6,No
2015/05/14,22:00,0.557,0.333,0.591,0.549,0.483,0.256,0.229,north,7.6,No
2015/05/14,22:10,0.551,0.334,0.593,0.549,0.475,0.254,0.228,north,7.4,No
2015/05/14,22:20,0.555,0.334,0.592,0.550,0.482,0.255,0.228,north,8.4,No
2015/05/14,22:30,0.550,0.334,0.587,0.549,0.479,0.254,0.227,north,6.6,No
2015/05/14,22:40,0.555,0.333,0.593,0.550,0.480,0.255,0.230,north,7.1,No
2015/05/14,22:50,0.551,0.334,0.587,0.547,0.480,0.254,0.228,north,6.7,No
2015/05/14,23:00,0.557,0.335,0.594,0.552,0.479,0.255,0.230,north-northwest,6.9,No
2015/05/14,23:10,0.551,0.332,0.588,0.545,0.480,0.254,0.228,north,7.5,No
2015/05/14,23:20,0.554,0.334,0.592,0.553,0.479,0.256,0.227,north,6.3,No
2015/05/14,23:30,0.552,0.333,0.591,0.547,0.482,0.254,0.227,north,6.4,No
2015/05/14,23:40,0.551,0.335,0.590,0.553,0.477,0.255,0.228,north,6.7,No
2015/05/14,23:50,0.554,0.333,0.593,0.547,0.483,0.253,0.229,north,6.2,No
